Flag Weather past 2 weeks in Moreno Valley, California, U.S.A.

Now
76 °F

Sunny.


Feels Like: 75 °F
Forecast: 49 / 80 °F
Wind: 3 mph from Southeast

Location: Riverside / March Air Force Base

Current Time: Nov 28, 2014 at 11:25:43 AM

Latest Report: Nov 28, 2014 at 10:58 AM


Visibility: 10 mi

Pressure: 29.99 "Hg

Humidity: 12%

Dew point: 20 °F

Location of Moreno ValleyLocation

Historic Weather in Moreno Valley — Graph

°F

Moreno Valley temperature yesterday

Maximum temperature yesterday: 86 °F (at 2:58 PM)
Minimum temperature yesterday: 41 °F (at 4:58 AM)
Average temperature yesterday: 61 °F

Past Weeks' High & Low Weather Summary

 TemperatureHumidityPressure
High86 °F (Nov 27, 2:58 PM)100% (Nov 15, 4:58 AM)30.41 "Hg (Nov 15, 4:58 AM)
Low38 °F (Nov 28, 6:58 AM)5% (Nov 16, 1:58 PM)29.91 "Hg (Nov 21, 4:58 AM)
Average58 °F44%30.11 "Hg
* Reported Nov 13 9:58 AM — Nov 28 9:58 AM, Moreno Valley, Weather by CustomWeather, © 2014

Note: Actual official high and low records may vary slightly from our data, if they occured in-between our weather recording intervals... More about our weather records

Advertising

Moreno Valley weather history for previous 24 hours

 ConditionsComfort  
Time TempWeatherWind HumidityBarometerVisibility
9:58 AM
Nov 28
67 °FSunny.2 mph19%30.02 "Hg10 mi
8:58 AM60 °FSunny.1 mph25%30.03 "Hg10 mi
7:58 AM51 °FSunny.No wind34%30.03 "Hg10 mi
6:58 AM38 °FSunny.No wind33%30.03 "Hg10 mi
5:58 AM39 °FClear.No wind36%30.01 "Hg10 mi
4:58 AM41 °FClear.No wind39%30.01 "Hg10 mi
3:58 AM40 °FClear.No wind36%30.00 "Hg10 mi
2:58 AM41 °FClear.No wind34%30.01 "Hg10 mi
1:58 AM44 °FClear.No wind33%30.01 "Hg10 mi
12:58 AM46 °FClear.No wind32%30.01 "Hg10 mi
11:58 PM
Nov 27
47 °FClear.No wind28%30.03 "Hg10 mi
10:58 PM49 °FClear.No wind26%30.04 "Hg10 mi
9:58 PM53 °FClear.No wind25%30.05 "Hg10 mi
8:58 PM54 °FClear.No wind22%30.06 "Hg10 mi
7:58 PM60 °FClear.3 mph20%30.06 "Hg10 mi
6:58 PM60 °FClear.3 mph18%30.07 "Hg10 mi
5:58 PM67 °FClear.1 mph14%30.05 "Hg10 mi
4:58 PM72 °FClear.2 mph11%30.04 "Hg10 mi
3:58 PM83 °FSunny.6 mph7%30.03 "Hg10 mi
2:58 PM86 °FSunny.7 mph6%30.02 "Hg10 mi
1:58 PM86 °FPartly sunny.3 mph6%30.03 "Hg10 mi
12:58 PM85 °FSunny.2 mph6%30.06 "Hg10 mi
11:58 AM83 °FSunny.3 mph8%30.07 "Hg10 mi
Weather by CustomWeather, © 2014

See weather overviewHow to use our weather pages